Latest METARs, TAFs and NOTAMs for SKCL


---------------------------------------------------------------------------
	(OBSERVATIONS)
SKCL 260200Z 35009KT 9999 FEW020 BKN200 23/18 A2999=
SKCL 260100Z 33008KT 9999 FEW020 BKN200 24/18 A2997=
SKCL 260000Z 35010KT 9999 FEW020 SCT200 24/17 A2994=
---------------------------------------------------------------------------
	(TERMINAL AREA FORECAST)
SKCL 252200Z 260024 VRB02KT 9999 SCT020 SCT200
    TEMPO 2600/2603 8000 VCSH SCT017TCU
    TEMPO 2610/2614 7000 BR VCSH SCT012
    TEMPO 2619/2622 34012KT 8000 BKN010
    TX31/2619Z TN19/2611Z=
---------------------------------------------------------------------------
	(NOTAMS)


SKCL A2219/14 SEQUENCED FLG LGT RWY 01 U/S. 04 AUG 14:50 2014
    UNTIL 04 NOV 23:59 2014 ESTIMATED. CREATED: 04 AUG 14:55
    2014

SKCL A2324/14 MOV AREA WO VERTICAL SIGNALLING, EXER CTN. H24,
    15 AUG 21:30 2014 UNTIL 30 NOV 23:59 2014. CREATED: 15 AUG
    22:18 2014

SKCL A3153/14 RWY 01/19 TURNING BAY LTD, ACFT PROHIBITED PARALLEL
    OR ONE SURPASSES THE OTHER ACFT, EXER CTN. H24, 22 OCT 14:15
    2014 UNTIL 31 JAN 23:59 2015. CREATED: 22 OCT 14:17 2014

SKCL A3154/14 APRON, CARGO APRON AND DECONGESTION APRON WIP,
    EXER CTN. H24, 22 OCT 14:25 2014 UNTIL 31 JAN 23:59 2015.
    CREATED: 22 OCT 14:22 2014

SKCL A3155/14 TWY A,B,C,C1,C2,D,E,F,G WIP, EXER CTN. H24, 22
    OCT 14:30 2014 UNTIL 31 JAN 23:59 2015. CREATED: 22 OCT 14:26
    2014

SKCL A3174/14 RWY 01/19 WIP, EXER CTN. 0530-1030, 24 OCT 05:30
    2014 UNTIL 30 DEC 10:30 2014. CREATED: 23 OCT 18:05 2014

SKCL V0133/14 [DOD PROCEDURAL NOTAM] INSTRUMENT APPROACH PROCEDURE
    NOT AUTHORIZED DUE TO HOST UPDATE: ILS RWY 01 AMDT 1, VOR
    RWY 19 ORIG, ANKIN 5A, 5B DEP, BUN 6A DEP, BUN 6C DEP NA
    UFN. 17 OCT 00:44 2014 UNTIL 08 JAN 23:59 2015. CREATED:
    17 OCT 00:47 2014

---------------------------------------------------------------------------